• In Uzbekistan
  • List of Countries
  • For 7 days
  • Water Temperature
  • Satellite Maps
  • Weather Map
  • Weather Widgets
  • user-avatar
    Login

    Hourly Weather Maceio

    Today, 17 January, Wednesday

    Time Temperature Precipitation Wind Pressure Humidity
    00:00 +26°C° 0.2 mm 4 mps 760 mmHg 87%
    01:00 +25°C° 0.2 mm 4 mps 760 mmHg 88%
    02:00 +25°C° 0.1 mm 4 mps 760 mmHg 89%
    03:00 +25°C° 0.1 mm 5 mps 759 mmHg 90%
    04:00 +25°C° 0.1 mm 5 mps 759 mmHg 90%
    05:00 +25°C° 0.1 mm 5 mps 759 mmHg 90%
    06:00 +26°C° 0.1 mm 5 mps 759 mmHg 89%
    07:00 +26°C° 0.1 mm 5 mps 759 mmHg 89%
    08:00 +28°C° 0.1 mm 5 mps 759 mmHg 81%
    09:00 +29°C° 0.1 mm 5 mps 760 mmHg 74%
    10:00 +32°C° 0.1 mm 6 mps 760 mmHg 66%
    11:00 +33°C° 0 mm 6 mps 760 mmHg 62%
    12:00 +34°C° 0 mm 6 mps 760 mmHg 58%
    13:00 +35°C° 0 mm 6 mps 759 mmHg 53%
    14:00 +34°C° 0 mm 6 mps 759 mmHg 54%
    15:00 +34°C° 0 mm 6 mps 759 mmHg 54%
    16:00 +34°C° 0 mm 6 mps 758 mmHg 55%
    17:00 +32°C° 0 mm 5 mps 758 mmHg 62%
    18:00 +30°C° 0 mm 5 mps 758 mmHg 70%
    19:00 +28°C° 0 mm 5 mps 759 mmHg 78%
    20:00 +27°C° 0.1 mm 5 mps 759 mmHg 82%
    21:00 +27°C° 0.1 mm 5 mps 759 mmHg 86%
    22:00 +26°C° 0.1 mm 4 mps 760 mmHg 90%
    23:00 +26°C° 0.2 mm 4 mps 760 mmHg 91%

    Tomorrow, 18 January, Thursday

    Time Temperature Precipitation Wind Pressure Humidity
    00:00 +26°C° 0.2 mm 5 mps 760 mmHg 91%
    01:00 +26°C° 0.2 mm 5 mps 760 mmHg 92%
    02:00 +26°C° 0.3 mm 5 mps 759 mmHg 93%
    03:00 +26°C° 0.3 mm 5 mps 759 mmHg 93%
    04:00 +26°C° 0.3 mm 5 mps 758 mmHg 93%
    05:00 +26°C° 0.2 mm 5 mps 759 mmHg 92%
    06:00 +26°C° 0.2 mm 4 mps 759 mmHg 92%
    07:00 +26°C° 0.2 mm 4 mps 759 mmHg 91%
    08:00 +28°C° 0.5 mm 4 mps 759 mmHg 85%
    09:00 +29°C° 0.5 mm 4 mps 760 mmHg 79%
    10:00 +30°C° 0.5 mm 4 mps 760 mmHg 72%
    11:00 +30°C° 0.2 mm 4 mps 760 mmHg 71%
    12:00 +30°C° 0.2 mm 4 mps 760 mmHg 70%
    13:00 +30°C° 0.2 mm 4 mps 759 mmHg 69%
    14:00 +32°C° 0.3 mm 4 mps 759 mmHg 67%
    15:00 +32°C° 0.3 mm 5 mps 758 mmHg 64%
    16:00 +33°C° 0.3 mm 5 mps 758 mmHg 62%
    17:00 +30°C° 0.3 mm 5 mps 758 mmHg 71%
    18:00 +28°C° 0.3 mm 4 mps 758 mmHg 79%
    19:00 +27°C° 0.3 mm 4 mps 758 mmHg 88%
    20:00 +26°C° 0.5 mm 4 mps 759 mmHg 90%
    21:00 +26°C° 0.5 mm 4 mps 759 mmHg 91%
    22:00 +26°C° 0.5 mm 4 mps 760 mmHg 93%
    23:00 +26°C° 0.5 mm 3 mps 759 mmHg 94%

    Day after tomorrow, 19 January, Friday

    Time Temperature Precipitation Wind Pressure Humidity
    00:00 +25°C° 0.5 mm 3 mps 759 mmHg 94%
    01:00 +25°C° 0.5 mm 3 mps 759 mmHg 95%
    02:00 +25°C° 1 mm 3 mps 758 mmHg 95%
    03:00 +25°C° 1 mm 3 mps 758 mmHg 95%
    04:00 +25°C° 1 mm 3 mps 758 mmHg 95%
    05:00 +25°C° 2.1 mm 3 mps 758 mmHg 94%
    06:00 +26°C° 2.1 mm 4 mps 758 mmHg 93%
    07:00 +26°C° 2.1 mm 4 mps 759 mmHg 92%
    08:00 +27°C° 1.7 mm 4 mps 759 mmHg 87%
    09:00 +28°C° 1.7 mm 4 mps 760 mmHg 83%
    10:00 +29°C° 1.7 mm 5 mps 760 mmHg 78%
    11:00 +30°C° 0.9 mm 5 mps 760 mmHg 78%
    12:00 +30°C° 0.9 mm 5 mps 760 mmHg 77%
    13:00 +30°C° 0.9 mm 5 mps 759 mmHg 76%
    14:00 +30°C° 0.6 mm 5 mps 759 mmHg 76%
    15:00 +30°C° 0.6 mm 5 mps 758 mmHg 77%
    16:00 +30°C° 0.6 mm 5 mps 758 mmHg 77%
    17:00 +29°C° 0.1 mm 5 mps 758 mmHg 81%
    18:00 +28°C° 0.1 mm 5 mps 758 mmHg 84%
    19:00 +27°C° 0.1 mm 4 mps 758 mmHg 88%
    20:00 +27°C° 0.1 mm 4 mps 759 mmHg 89%
    21:00 +26°C° 0.1 mm 4 mps 759 mmHg 91%
    22:00 +26°C° 0.1 mm 4 mps 760 mmHg 92%
    23:00 +26°C° 0.1 mm 4 mps 759 mmHg 93%

    20 January, Saturday

    Time Temperature Precipitation Wind Pressure Humidity
    00:00 +26°C° 0.1 mm 4 mps 759 mmHg 93%
    01:00 +26°C° 0.1 mm 3 mps 759 mmHg 93%
    02:00 +26°C° 0.1 mm 3 mps 758 mmHg 94%
    03:00 +26°C° 0.1 mm 3 mps 758 mmHg 94%
    04:00 +25°C° 0.1 mm 3 mps 758 mmHg 94%
    05:00 +26°C° 0.1 mm 3 mps 758 mmHg 94%
    06:00 +26°C° 0.1 mm 3 mps 758 mmHg 93%
    07:00 +26°C° 0.1 mm 3 mps 759 mmHg 92%
    08:00 +28°C° 0.1 mm 4 mps 759 mmHg 85%
    09:00 +29°C° 0.1 mm 4 mps 759 mmHg 79%
    10:00 +30°C° 0.1 mm 4 mps 760 mmHg 72%
    11:00 +32°C° 0.1 mm 4 mps 759 mmHg 67%
    12:00 +33°C° 0.1 mm 4 mps 759 mmHg 62%
    13:00 +34°C° 0.1 mm 5 mps 758 mmHg 57%
    14:00 +34°C° 0.1 mm 5 mps 758 mmHg 59%
    15:00 +34°C° 0.1 mm 5 mps 757 mmHg 60%
    16:00 +33°C° 0.1 mm 5 mps 757 mmHg 62%
    17:00 +32°C° 0 mm 4 mps 757 mmHg 68%
    18:00 +29°C° 0 mm 4 mps 757 mmHg 74%
    19:00 +28°C° 0 mm 4 mps 758 mmHg 80%
    20:00 +28°C° 0 mm 4 mps 758 mmHg 83%
    21:00 +27°C° 0 mm 3 mps 759 mmHg 86%
    22:00 +27°C° 0 mm 3 mps 759 mmHg 89%
    23:00 +26°C° 0 mm 3 mps 759 mmHg 91%

    21 January, Sunday

    Time Temperature Precipitation Wind Pressure Humidity
    00:00 +26°C° 0 mm 3 mps 758 mmHg 92%
    01:00 +26°C° 0 mm 2 mps 758 mmHg 93%
    02:00 +26°C° 0 mm 2 mps 758 mmHg 94%
    03:00 +25°C° 0 mm 3 mps 758 mmHg 94%
    04:00 +25°C° 0 mm 3 mps 757 mmHg 95%
    05:00 +25°C° 0 mm 3 mps 758 mmHg 94%
    06:00 +26°C° 0 mm 3 mps 758 mmHg 93%
    07:00 +26°C° 0 mm 3 mps 758 mmHg 92%
    08:00 +28°C° 0 mm 3 mps 759 mmHg 83%
    09:00 +29°C° 0 mm 3 mps 759 mmHg 74%
    10:00 +32°C° 0 mm 4 mps 759 mmHg 64%
    11:00 +33°C° 0 mm 4 mps 759 mmHg 62%
    12:00 +34°C° 0 mm 4 mps 758 mmHg 59%
    13:00 +34°C° 0 mm 4 mps 758 mmHg 56%
    14:00 +34°C° 0.1 mm 4 mps 757 mmHg 58%
    15:00 +34°C° 0.1 mm 5 mps 757 mmHg 59%
    16:00 +34°C° 0.1 mm 5 mps 756 mmHg 60%
    17:00 +32°C° 0 mm 4 mps 757 mmHg 68%
    18:00 +30°C° 0 mm 4 mps 757 mmHg 75%
    19:00 +28°C° 0 mm 4 mps 757 mmHg 82%
    20:00 +27°C° 0 mm 4 mps 757 mmHg 86%
    21:00 +27°C° 0 mm 3 mps 758 mmHg 89%
    22:00 +26°C° 0 mm 3 mps 758 mmHg 93%
    23:00 +26°C° 0.1 mm 3 mps 758 mmHg 94%

    22 January, Monday

    Time Temperature Precipitation Wind Pressure Humidity
    00:00 +26°C° 0.1 mm 3 mps 757 mmHg 94%
    01:00 +26°C° 0.1 mm 3 mps 757 mmHg 95%
    02:00 +26°C° 0.1 mm 3 mps 757 mmHg 95%
    03:00 +26°C° 0.1 mm 3 mps 757 mmHg 95%
    04:00 +25°C° 0.1 mm 3 mps 756 mmHg 95%
    05:00 +26°C° 0.1 mm 3 mps 757 mmHg 94%
    06:00 +26°C° 0.1 mm 3 mps 757 mmHg 93%
    07:00 +26°C° 0.1 mm 3 mps 758 mmHg 92%
    08:00 +28°C° 0.1 mm 4 mps 758 mmHg 85%
    09:00 +29°C° 0.1 mm 4 mps 758 mmHg 78%
    10:00 +32°C° 0.1 mm 4 mps 758 mmHg 71%
    11:00 +33°C° 0.1 mm 4 mps 758 mmHg 67%
    12:00 +34°C° 0.1 mm 5 mps 757 mmHg 63%
    13:00 +34°C° 0.1 mm 5 mps 757 mmHg 59%
    14:00 +34°C° 0.1 mm 5 mps 757 mmHg 59%
    15:00 +34°C° 0.1 mm 5 mps 756 mmHg 59%
    16:00 +34°C° 0.1 mm 5 mps 756 mmHg 60%
    17:00 +32°C° 0 mm 5 mps 756 mmHg 65%
    18:00 +30°C° 0 mm 5 mps 756 mmHg 71%
    19:00 +28°C° 0 mm 4 mps 757 mmHg 77%
    20:00 +28°C° 0 mm 4 mps 757 mmHg 81%
    21:00 +27°C° 0 mm 4 mps 757 mmHg 85%
    22:00 +26°C° 0 mm 4 mps 758 mmHg 89%
    23:00 +26°C° 0 mm 4 mps 757 mmHg 91%
    Show more